カタログに戻る

ARIANE 5 R/B

運用中GTO
NORAD 43176·ROCKET BODY·🇫🇷 France

打ち上げ Jan 25, 2018 から Guiana Space Centre

Loading…

TLE

古いSource: Space-Track

元期: Sep 14, 2026, 02:59 UTC

1 43176U 18012C   26257.12475108  .00003709  00000-0  16584-2 0  9998
2 43176  21.6331 300.1964 7467089 230.8031  35.4984  2.04825997 61141

AllMySatでARIANE 5 R/Bをリアルタイム追跡

Download on the App Store